User: anonymous   Login
Location: Unspecified
(0.0000°N, 0.0000°E)
Time: 15:57:50
(UTC+00:00)
Language:

USA 186 - Orbit

View from above orbital plane
View from above orbital plane
View from above satellite
View from above satellite

Ground track
Ground track

The orbit data is extracted from the following two-line orbital elements,

1 28888U 05042A   18277.76166761 0.00019000  00000-0  82327-4 0    09
2 28888  96.8714 314.5172 0134634 119.4665 240.5334 15.72250377    07
Epoch (UTC): 04 October 2018 18:16:48
Eccentricity: 0.0134634
inclination: 96.8714°
perigee height: 262 km
apogee height: 443 km
right ascension of ascending node: 314.5172°
argument of perigee: 119.4665°
revolutions per day: 15.72250377
mean anomaly at epoch: 240.5334°
orbit number at epoch: 0

The dashed part of the orbit path shows where the satellite is in the earth's shadow,  

DLR